Location: Unspecified
(0.0000°N, 0.0000°E)
Time: 15:21:52
(UTC+00:00)

deb Delta 126 - Pass Details

Date: 17 February 2026
Orbit: 1458 x 1580 km, 101.9° (Epoch: 6 March)

Event Time Altitude Azimuth Distance (km) Brightness Sun altitude
Rises 04:29:28 0° 356° (N) 4,745 ? -25.5°
Reaches altitude 10° 04:32:39 10° 348° (NNW) 3,769 ? -24.8°
Enters shadow 04:38:51 33° 306° (NW) 2,429 ? -23.2°
Exits shadow 04:41:56 33° 268° (W) 2,423 ? -22.5°
Drops below altitude 10° 04:48:14 10° 225° (SW) 3,767 ? -21.0°
Sets 04:51:27 0° 216° (SW) 4,742 ? -20.2°
